Location: Ottawa
(45.4170°N, 75.7000°W)
Time: 01:18:09
(UTC-04:00)

Daily predictions for brighter satellites

Satellite Brightness Start Highest point End
(mag) Time Altitude Azimuth Time Altitude Azimuth Time Altitude Azimuth
Cosmos 1943 Rocket 4.1 00:10:18 25° NNW 00:10:18 25° NNW 00:13:41 10° N
CZ-4C R/B 4.4 00:33:39 21° NW 00:35:01 23° NNW 00:39:59 10° NNE
ATLAS 3B R/B 3.8 00:54:09 41° NNW 00:54:09 41° NNW 00:59:35 10° NNE
Cosmos 1980 Rocket 4.2 02:02:11 24° NNE 02:02:11 24° NNE 02:04:24 10° NNE
Cosmos 2263 Rocket 4.2 02:03:20 10° NNW 02:05:55 24° N 02:05:55 24° N
CENTAUR R/B 3.6 02:23:02 42° NE 02:23:02 42° NE 02:27:30 10° NE
Resurs 1-4 Rocket 3.7 02:50:33 10° NNE 02:53:59 29° ENE 02:53:59 29° ENE
CZ-2D R/B 3.3 03:02:48 10° NNE 03:07:00 39° ENE 03:07:00 39° ENE
Cosmos 2322 Rocket 3.1 03:14:58 44° NNE 03:14:58 44° NNE 03:18:47 10° NNE
SL-16 R/B 2.8 03:21:34 63° N 03:21:34 63° N 03:26:44 10° NNW
SL-16 R/B 3.0 03:22:22 47° N 03:22:22 47° N 03:26:29 10° NNE
Cosmos 1844 Rocket 4.2 03:19:22 10° N 03:24:25 33° NE 03:29:25 10° ESE
ADEOS 4.3 03:23:44 10° NNE 03:27:46 51° NE 03:27:46 51° NE
ARIANE 5 R/B 3.3 03:25:08 10° NNE 03:29:07 50° NE 03:29:07 50° NE
COSMOS 2428 4.0 03:35:39 31° ESE 03:36:22 32° ESE 03:41:19 10° NE
SL-08 ROCKET BODY 4.5 03:33:30 10° N 03:39:21 69° E 03:39:30 69° E
Cosmos 2360 Rocket 2.4 03:42:22 68° ENE 03:42:22 68° ENE 03:47:29 10° NNE
Okean O Rocket 4.4 03:40:32 10° ENE 03:42:53 14° E 03:45:13 10° ESE
Cosmos 1980 Rocket 3.9 03:43:56 21° NW 03:43:56 21° NW 03:47:40 10° N
Cosmos 2278 Rocket 4.4 03:42:51 10° N 03:47:27 24° NE 03:52:01 10° ESE
ATLAS 5 CENTAUR R/B 3.7 03:42:16 10° NNW 03:47:43 39° NE 03:53:37 10° ESE
Cosmos 2263 Rocket 4.5 03:47:17 10° NW 03:47:34 11° NW 03:47:34 11° NW
ADEOS Rocket 2.6 03:50:01 10° NNE 03:55:33 84° E 03:55:33 84° E
Cosmos 1975 4.4 03:54:27 10° N 03:56:52 33° NNE 03:56:52 33° NNE
Cosmos 2184 Rocket 3.9 03:53:20 10° N 03:59:36 83° E 04:01:18 51° SSE
Cosmos 1812 4.5 04:02:26 28° N 04:02:26 28° N 04:04:22 10° N
IRS-1D 3.9 03:56:28 10° N 04:00:22 51° NNW 04:00:22 51° NNW
SL-8 R/B 4.1 04:02:14 61° ENE 04:02:14 61° ENE 04:06:20 10° E
Cosmos 1536 Rocket 4.2 04:08:44 52° ESE 04:09:00 53° E 04:13:22 10° NNE
CENTAUR R/B 3.8 04:10:12 27° WNW 04:12:03 31° NNW 04:18:21 10° NNE
COBE Rocket 3.8 04:09:47 10° N 04:14:58 84° WNW 04:15:12 81° SW
Cosmos 1743 3.7 04:16:58 10° N 04:20:42 45° ENE 04:21:35 38° ESE
Cosmos 2333 Rocket 3.6 04:19:44 18° SSE 04:23:19 35° ESE 04:28:27 10° NE
USA 215 3.6 04:17:16 10° ESE 04:23:43 65° NNE 04:30:11 10° NW
Meteor 2-13 Rocket 4.3 04:20:07 10° NNW 04:26:17 78° W 04:29:10 33° S
Cosmos 2322 3.8 04:26:35 55° W 04:27:16 59° WNW 04:32:56 10° NNE
USA 229 DEB 4.2 04:29:44 28° S 04:33:19 55° ESE 04:40:03 10° NE
USA 229 4.2 04:29:49 27° S 04:33:25 54° ESE 04:40:09 10° NE
Cosmos 2154 Rocket 4.0 04:27:49 10° N 04:34:04 82° E 04:40:17 10° S
Resurs 1-4 Rocket 2.8 04:30:22 10° N 04:35:04 36° WNW 04:35:04 36° WNW
DELTA 2 R/B (1) 3.9 04:34:43 45° S 04:35:11 46° S 04:40:28 10° ESE
UNKNOWN OBJECT B 3.9 04:37:56 10° N 04:40:16 30° NNW 04:40:16 30° NNW
Cosmos 1844 3.6 04:36:59 10° NNW 04:42:47 87° WSW 04:48:29 10° SSE
MOS 1 Rocket 3.1 04:38:30 10° NNE 04:43:10 90° ESE 04:44:28 47° SSW
Cosmos 1238 Rocket 2.7 04:45:26 56° ENE 04:45:26 56° ENE 04:48:14 10° NNE
Cosmos 2333 4.1 04:44:35 40° SSW 04:46:45 85° WNW 04:52:31 10° NNE
CZ-2D R/B 3.1 04:43:12 10° N 04:47:54 30° WNW 04:48:20 30° WNW
EO 1 Del DPAF 3.8 04:45:23 10° SSE 04:49:10 59° ENE 04:53:00 10° N
Nadezhda 1 Rocket 3.9 04:47:12 36° SSW 04:49:42 63° W 04:55:45 10° N
CZ-4B R/B 3.8 04:46:38 10° NNE 04:52:11 57° E 04:57:37 10° S
ADEOS II 2.5 04:48:29 10° NNE 04:53:43 60° E 04:58:54 10° S
Cosmos 2208 Rocket 4.1 04:52:22 40° SW 04:54:16 65° WNW 04:59:42 10° NNE
Cosmos 2322 Rocket 4.0 04:56:46 15° WNW 04:58:11 16° NW 05:01:36 10° N
Cosmos 2181 Rocket 4.3 04:53:34 10° S 04:59:45 71° E 05:06:05 10° NNE
Cosmos 1980 4.3 04:57:21 13° S 05:02:12 56° ESE 05:07:44 10° NNE
Cosmos 1025 Rocket 3.8 04:58:02 10° S 05:02:17 52° E 05:06:35 10° NNE
Cosmos 990 Rocket 4.5 04:57:39 10° NNW 05:02:49 61° ENE 05:07:54 10° SSE
NOSS 0 Rocket 4.3 04:59:30 14° S 05:04:43 65° ESE 05:10:49 10° NNE
SL-16 R/B 4.2 05:06:39 15° WNW 05:06:39 15° WNW 05:08:42 10° NW
Cosmos 2219 Rocket 2.1 05:02:20 25° SSW 05:05:45 89° WNW 05:11:24 10° NNE
SL-16 R/B 4.1 05:04:14 13° WNW 05:06:00 15° NW 05:09:14 10° N
Cosmos 1844 Rocket 2.9 05:03:11 10° NW 05:08:25 42° WSW 05:13:36 10° S
ARIANE 5 R/B 4.0 05:05:21 10° NNW 05:08:54 19° WNW 05:09:28 19° WNW
Cosmos 1867 3.5 05:04:19 10° NW 05:09:44 67° WSW 05:15:07 10° SSE
Meteor 1-13 Rocket 4.2 05:08:27 20° SSW 05:12:21 67° WNW 05:18:00 10° N
CZ-4B R/B 2.5 05:11:00 10° N 05:14:37 69° WNW 05:16:28 28° SSW
Cosmos 468 Rocket 4.0 05:10:37 17° SSW 05:14:39 87° ESE 05:19:56 10° NNE
Meteor 2-9 Rocket 4.1 05:09:25 10° NNW 05:15:07 87° W 05:20:37 10° S
GENESIS II 4.4 05:15:21 26° SSW 05:17:34 77° SE 05:21:39 10° NE
Cosmos 1437 3.7 05:16:01 10° S 05:19:11 49° E 05:22:23 10° NNE
Cosmos 1898 Rocket 3.5 05:14:19 10° NNW 05:19:25 58° WSW 05:24:29 10° S
Cosmos 2341 Rocket 4.0 05:13:20 10° NNW 05:19:30 63° W 05:25:35 10° S
Okean O Rocket 1.6 05:15:15 10° N 05:19:40 64° WNW 05:22:51 18° SSW
COSMOS 2428 3.2 05:17:41 26° WSW 05:20:28 43° WNW 05:25:55 10° NNE
IRAS Rocket 4.3 05:15:06 10° NNE 05:20:40 83° ESE 05:26:16 10° SSW
Cosmos 2218 Rocket 4.3 05:14:31 10° N 05:20:56 73° E 05:27:13 10° SSE
Cosmos 2150 Rocket 3.9 05:17:00 10° NNW 05:22:18 72° WSW 05:27:39 10° S
Cosmos 2360 Rocket 3.7 05:24:08 17° WNW 05:26:27 22° NW 05:30:46 10° N
Thor Agena Rocket 4.5 05:22:17 10° SE 05:27:08 50° ENE 05:32:01 10° N
Cosmos 1340 4.5 05:28:09 16° WNW 05:28:09 16° WNW 05:30:19 10° NNW
Meteor 2-19 Rocket 4.4 05:24:25 10° NNW 05:30:25 60° W 05:36:20 10° S
Cosmos 2278 Rocket 2.2 05:26:23 10° NNW 05:32:01 64° WSW 05:37:35 10° SSE
ATLAS 5 CENTAUR R/B 2.5 05:26:51 10° NW 05:32:40 53° WSW 05:38:58 10° SSE
Cosmos 1763 Rocket 3.6 05:31:56 10° SSW 05:37:00 74° ESE 05:42:09 10° NNE
Meteor 1-23 Rocket 4.2 05:32:00 10° SSW 05:37:47 79° W 05:43:34 10° N
Cosmos 2237 Rocket 2.2 05:32:31 10° SSW 05:38:13 84° WNW 05:43:58 10° NNE
Okean-O 3.2 05:34:33 10° NNE 05:38:57 59° E 05:43:20 10° S
ADEOS Rocket 4.4 05:37:14 10° NNW 05:40:23 16° NW 05:42:31 13° W
Cosmos 1666 3.5 05:37:46 10° NNW 05:41:13 31° W 05:44:39 10° SSW
Cosmos 1441 Rocket 4.1 05:39:57 10° S 05:43:50 55° E 05:47:46 10° NNE
Cosmos 1937 Rocket 3.7 05:38:43 10° NNW 05:43:52 50° WSW 05:48:56 10° S
SL-8 R/B 4.0 05:40:15 14° W 05:44:01 45° SSW 05:48:33 10° SE
Cosmos 1959 Rocket 4.4 05:41:52 10° NNW 05:47:58 73° W 05:54:05 10° S
Cosmos 2297 3.8 05:45:01 10° NNW 05:50:49 87° ENE 05:56:33 10° SSE
PSLV R/B 4.0 05:46:46 10° N 05:50:52 41° WNW 05:54:59 10° SW
Cosmos 2285 Rocket 4.2 05:46:35 10° SW 05:52:54 57° WNW 05:59:15 10° NNE
Cosmos 841 Rocket 3.5 05:48:32 10° SSW 05:53:41 84° ESE 05:58:51 10° NNE
Cosmos 405 Rocket 3.0 05:50:04 10° SSW 05:54:01 52° WNW 05:57:55 10° N
Meteor 2-4 Rocket 4.0 05:50:33 10° SW 05:55:49 45° WNW 06:01:01 10° N
Cosmos 1743 4.5 05:54:09 10° NW 05:56:06 14° W 05:56:39 13° W
CZ-2C R/B 4.4 05:52:25 10° SSW 05:56:27 31° W 06:00:29 10° NNW
Cosmos 405 3.0 05:57:35 10° N 06:01:09 86° E 06:04:43 10° S
SKYMED 2 4.1 05:58:35 10° SSE 06:02:53 66° ENE 06:07:12 10° N
Cosmos 2058 Rocket 3.0 05:58:55 10° NNW 06:03:23 71° W 06:07:48 10° S
Meteor PRIRODA 4.0 06:00:16 10° N 06:03:54 46° WNW 06:07:30 10° SSW
Cosmos 2366 rocket 4.1 05:58:27 10° NNW 06:04:43 62° W 06:10:58 10° S
GPS 2-04 Rocket1 4.5 06:03:10 10° SW 06:06:07 20° S 06:08:58 10° SE
CZ-4C R/B 3.2 05:59:46 10° NW 06:06:49 74° NE 06:14:39 10° SE
USA 215 3.6 06:00:42 10° SSE 06:06:54 45° SW 06:13:09 10° WNW
Cosmos 2333 Rocket 2.8 06:02:07 10° SW 06:07:29 41° NW 06:12:55 10° NNE
Cosmos 1814 Rocket 4.4 06:05:35 10° SW 06:10:30 43° WNW 06:15:25 10° N
ERBS 2.3 06:07:58 10° NW 06:11:27 67° SW 06:14:54 10° SE
NOAA 6 4.2 06:07:22 10° NNE 06:12:32 81° ESE 06:17:38 10° SSW
Cosmos 372 Rocket 4.5 06:09:06 10° NNW 06:14:21 68° ENE 06:19:35 10° SSE
Cosmos 1606 Rocket 4.2 06:10:24 10° NNW 06:14:27 34° W 06:18:28 10° SSW
Meteor 2-16 Rocket 4.5 06:10:58 10° N 06:17:07 86° W 06:23:11 10° S
Aureole 2 Rocket 3.7 06:15:25 10° WSW 06:18:07 21° WNW 06:20:41 10° N
OTV 4 2.6 06:17:16 10° SSW 06:19:01 16° S 06:20:48 10° SE
Meteor 1-31 Rocket 3.1 06:15:35 10° N 06:19:12 43° WNW 06:22:49 10° SW
DELTA 2 R/B (1) 4.3 06:16:00 10° W 06:21:08 39° SSW 06:26:15 10° SE
